Theta_e
316 311 309 311 311 308 307 308 309 307 305 307 306 307 308 309 311 311 308 308 309 309 313 314 315 315 316 317 317 316 320 317 318 317 317 315 315 314 313 313 313 312 313 312 311
312 308 307 306 306 306 307 307 307 307 306 305 306 308 307 309 313 311 308 309 309 310 313 312 312 314 313 316 314 315 317 318 315 315 314 314 314 313 314 313 312 313 310 310 309
309 307 306 306 305 306 306 305 305 305 305 305 307 308 309 310 314 310 309 309 311 311 312 313 313 313 315 314 313 315 316 315 314 314 313 313 313 313 312 312 311 311 310 308 308
310 308 307 307 306 306 305 305 305 306 308 309 309 309 309 312 314 310 309 310 312 312 313 313 312 314 315 314 313 315 314 314 314 313 312 312 311 311 310 310 311 311 310 308 308
314 309 308 307 307 307 307 308 308 308 309 309 309 310 311 311 309 310 310 311 312 312 312 313 312 313 315 313 313 314 313 313 313 313 312 311 312 312 312 310 309 311 310 309 308
315 313 309 308 308 308 308 308 308 308 309 308 309 308 314 315 310 310 310 310 311 312 311 311 312 312 314 313 314 313 313 313 313 314 313 314 313 314 313 311 311 311 310 309 308
315 315 313 308 308 308 309 309 308 308 308 308 309 309 310 312 311 310 310 311 311 311 311 311 311 313 313 314 312 312 311 310 312 314 313 311 311 313 311 312 311 311 311 310 309
317 315 315 314 308 308 308 308 307 310 310 310 309 310 312 311 311 311 310 311 311 310 310 309 310 312 313 311 311 311 311 312 313 312 313 311 313 312 311 311 312 311 311 310 310
317 316 316 315 315 313 309 308 308 310 310 309 311 312 313 310 311 311 310 310 311 311 311 308 311 312 312 313 313 313 313 314 314 312 313 312 311 312 311 312 312 311 310 310 309
314 317 315 316 316 316 314 308 308 309 312 309 309 313 311 312 311 311 310 309 310 311 312 312 311 312 311 310 313 313 312 312 314 313 311 311 311 311 311 312 312 310 309 309 310
312 317 315 317 316 311 311 313 313 315 313 314 313 313 312 311 311 313 310 310 311 312 315 314 313 316 312 311 311 311 312 312 311 310 311 309 310 311 309 309 309 309 308 309 310
314 316 315 315 315 312 316 313 311 314 314 311 312 311 310 310 313 312 310 312 313 316 315 314 315 311 310 310 311 311 312 311 312 311 312 311 312 312 311 310 309 309 308 308 309
314 315 315 315 317 314 311 311 312 314 316 314 313 313 312 311 313 315 310 311 313 314 316 315 315 310 311 311 312 312 312 313 313 311 310 310 310 314 312 311 310 310 309 309 309
316 314 316 315 317 316 312 310 311 314 315 318 316 314 312 312 314 311 309 310 313 314 314 314 311 311 312 312 312 313 311 312 312 312 314 311 313 311 313 312 310 309 309 309 309
316 316 316 316 314 313 310 310 313 317 321 319 316 313 313 314 314 314 309 309 314 315 313 315 310 311 313 314 311 312 309 310 311 312 313 313 312 311 311 312 310 307 306 306 308
317 316 316 315 318 312 311 314 318 326 321 321 317 319 317 315 316 313 312 309 310 313 312 312 309 310 312 310 309 308 311 313 311 312 316 313 312 313 313 311 311 309 306 307 308
317 317 317 315 315 315 315 318 325 324 319 321 320 318 318 318 317 315 316 315 315 319 321 317 314 310 309 310 309 311 314 318 319 319 321 312 312 313 313 311 310 308 308 306 307
317 317 318 317 316 316 319 322 330 324 320 318 318 318 319 317 316 316 316 316 314 316 316 316 319 312 308 310 315 314 313 317 323 321 318 311 316 315 309 307 306 306 307 307 307
317 317 320 321 317 317 318 322 325 322 318 317 318 320 320 317 314 316 315 316 315 313 316 318 319 308 308 308 310 313 313 311 315 314 316 314 313 312 309 308 308 307 307 306 305
319 318 319 320 315 319 319 323 321 316 315 316 319 318 320 317 316 315 317 316 315 313 313 315 317 311 307 307 307 310 309 314 314 327 324 318 317 316 312 311 310 309 308 307 305
319 316 319 315 317 316 318 320 319 313 313 316 317 319 318 318 317 317 317 316 313 311 311 313 313 314 309 309 314 306 309 310 314 321 325 322 319 314 314 313 311 308 306 302 299
317 318 318 315 314 316 319 319 312 314 311 313 313 314 316 316 317 317 317 317 310 309 312 310 312 315 315 310 309 308 309 309 318 320 320 321 319 314 313 308 306 305 304 297 294
313 316 319 316 314 315 315 319 316 315 313 313 314 313 314 316 318 315 315 313 309 309 311 311 312 315 317 314 315 314 314 316 317 314 320 323 320 312 307 304 302 301 297 294 293
313 319 315 313 312 317 319 319 320 315 315 313 314 314 314 314 313 314 316 314 310 309 310 311 310 316 320 319 320 319 318 316 318 318 320 320 318 312 305 302 300 296 295 294 292
312 317 315 317 317 318 318 319 320 320 314 313 315 314 315 317 317 317 315 314 311 310 309 309 311 310 312 312 315 317 318 319 321 319 321 321 320 313 303 300 298 297 295 293 292
318 318 313 314 316 317 317 318 319 319 318 319 317 317 318 319 318 318 316 315 316 308 309 311 317 314 316 315 316 318 318 318 318 319 319 318 319 304 297 295 294 293 293 292 291
313 314 314 317 316 317 317 318 318 317 317 317 317 315 315 315 314 313 313 314 315 316 310 311 313 313 319 319 319 320 316 317 316 301 303 312 297 296 295 292 291 291 290 289 288
Wind_Speed
10 8 6 3 2 1 1 1 1 2 3 5 8 9 12 13 6 7 6 8 9 11 7 9 6 5 3 1 2 3 4 2 2 2 3 2 3 2 3 4 2 5 5 10 20
10 9 7 5 4 3 2 2 0 1 1 3 5 8 11 10 3 9 11 11 11 7 3 8 3 3 2 1 3 4 3 1 0 1 3 2 3 4 1 2 3 3 8 20 18
9 8 7 6 5 5 3 2 2 2 2 3 6 8 9 6 2 3 13 10 9 6 4 5 6 2 2 2 2 2 2 0 2 3 4 4 2 2 3 5 6 7 11 10 12
10 8 7 5 5 4 4 4 4 4 5 6 9 8 5 3 1 6 11 8 8 7 7 4 4 2 2 1 1 2 0 2 2 2 1 2 5 6 6 7 5 5 15 10 8
11 9 7 5 4 3 3 3 4 4 4 8 9 9 2 3 1 7 7 7 5 7 6 3 5 2 2 2 3 1 3 2 4 4 3 4 7 5 9 9 7 9 12 10 8
13 11 9 5 4 2 2 2 3 3 4 8 9 9 2 1 1 7 7 6 9 8 8 7 2 1 1 2 2 2 3 4 5 4 4 4 4 1 6 5 8 9 10 9 10
15 12 10 6 3 3 3 2 2 4 6 7 7 6 2 3 1 7 7 6 7 6 2 4 4 3 2 1 1 2 4 5 5 4 3 2 6 7 11 5 10 8 8 9 9
17 14 11 8 5 4 4 3 4 5 7 4 5 1 2 2 1 6 3 1 3 5 3 2 5 2 3 1 1 1 1 4 2 6 2 4 8 6 5 10 9 9 8 8 9
20 17 14 12 6 5 6 6 6 6 7 3 2 1 5 1 0 4 5 1 5 3 3 3 2 2 4 2 4 3 3 3 5 7 2 4 9 7 6 8 9 9 9 9 8
23 19 16 13 5 7 7 6 6 7 2 2 3 2 1 1 2 3 3 2 1 3 4 3 4 3 3 3 2 3 3 4 4 3 4 5 19 9 9 9 12 10 10 9 11
28 21 18 11 7 8 4 2 4 3 2 2 2 2 1 4 3 1 3 2 2 0 1 1 4 3 5 3 2 2 3 5 5 3 3 6 15 23 10 9 9 10 9 10 13
31 23 18 10 7 7 5 5 2 1 4 1 0 1 0 1 2 1 4 1 1 1 2 4 3 3 4 2 1 2 4 6 5 4 2 6 15 17 4 5 7 13 10 10 7
32 25 19 10 4 8 12 5 2 1 1 1 2 1 1 0 2 2 2 1 2 2 3 5 2 4 2 1 3 4 5 3 4 6 6 5 7 4 1 1 3 6 6 6 10
33 27 20 9 3 5 4 4 3 1 4 2 1 1 0 1 2 1 1 1 2 2 2 4 2 3 3 4 4 4 2 2 3 5 2 4 5 7 3 3 4 5 7 9 8
34 29 17 12 3 3 3 4 4 1 4 0 1 1 1 2 2 2 0 1 2 1 3 5 5 4 4 4 4 6 1 5 3 2 3 3 2 7 2 4 7 9 8 8 8
32 29 15 5 4 4 4 5 1 5 4 1 2 1 2 2 2 3 0 0 1 1 3 5 0 3 4 2 2 2 4 4 2 2 1 5 6 5 4 7 5 1 7 8 7
29 26 10 5 3 7 5 2 5 3 1 1 1 2 1 3 3 4 2 2 3 1 2 1 3 1 2 1 2 2 4 4 4 2 5 2 1 8 4 4 4 6 1 8 7
28 21 10 3 6 6 1 4 1 3 1 2 2 2 4 1 4 3 2 4 5 3 0 3 6 7 5 5 6 4 5 4 5 3 5 1 7 5 2 7 5 7 4 5 6
27 14 6 3 6 5 4 3 6 3 1 2 4 2 3 2 2 2 6 5 5 7 7 2 5 2 1 1 3 3 3 3 2 2 2 4 6 0 3 5 5 4 4 6 7
24 9 5 3 6 2 4 5 3 0 1 1 3 5 2 3 2 3 3 2 4 2 3 2 6 3 0 1 1 3 1 1 1 4 5 5 4 4 3 4 5 8 8 4 2
9 4 1 5 2 4 3 6 2 1 1 2 3 3 3 3 3 3 5 3 2 2 4 1 4 2 3 7 8 1 3 4 2 4 3 3 5 4 8 9 10 11 14 11 13
6 3 2 4 3 2 3 3 3 3 1 2 1 3 4 3 3 3 7 6 4 6 4 4 3 5 11 2 1 4 7 6 4 4 4 3 6 8 12 14 12 11 12 14 16
3 3 3 1 2 3 6 3 2 5 4 5 4 6 1 3 3 5 5 3 5 6 6 3 3 4 8 2 2 3 2 3 1 1 9 6 3 2 12 13 12 13 14 13 13
2 3 4 2 1 3 2 4 2 3 3 4 3 1 2 4 6 6 3 1 3 2 4 5 5 8 14 13 1 4 6 6 10 5 6 11 15 8 9 9 9 12 11 11 11
2 4 3 3 2 0 0 2 6 5 4 6 3 6 7 5 5 9 6 3 2 5 3 3 6 6 15 16 10 16 13 12 14 16 12 22 18 2 6 7 7 8 8 9 9
2 2 3 3 3 4 2 4 7 6 4 9 11 9 6 8 12 13 3 3 6 4 6 4 5 3 18 12 15 23 18 18 19 23 22 22 20 7 7 7 8 8 8 9 9
9 7 3 4 4 4 5 6 7 4 7 10 7 2 4 9 3 4 6 6 9 7 7 5 4 3 12 6 9 14 11 17 5 7 5 4 6 8 7 10 9 8 8 9 8
Wind_Direction
15 24 41 59 58 46 81 111 168 208 230 258 294 325 345 353 18 67 44 334 331 345 346 337 294 259 289 61 4 56 57 354 15 74 157 190 125 316 151 134 199 159 138 149 154
25 38 45 41 35 38 55 66 79 212 266 296 317 332 340 347 20 56 2 356 350 353 7 9 7 331 8 104 11 78 86 346 40 74 56 196 156 166 172 220 228 90 105 147 158
37 42 40 38 41 50 55 68 87 89 39 355 336 328 332 346 39 358 357 359 13 20 24 329 318 324 91 52 17 357 130 31 34 84 46 345 301 224 192 260 224 205 175 164 165
35 37 37 41 48 56 65 76 80 64 35 17 4 350 341 8 133 347 347 12 40 22 346 314 315 314 79 101 239 69 279 64 164 91 34 264 325 311 205 220 174 148 164 160 167
30 30 30 31 41 55 67 69 50 31 40 9 1 1 4 44 234 326 350 12 39 43 25 341 19 31 95 123 18 25 209 157 147 156 239 280 266 248 260 252 164 123 148 169 173
30 27 23 21 22 24 44 31 17 11 343 347 349 349 14 58 279 332 2 19 28 35 33 33 17 265 1 87 105 299 319 253 198 218 242 241 259 24 273 210 165 149 160 178 178
28 25 22 19 8 347 320 319 336 337 328 330 336 354 339 183 21 12 0 19 28 32 71 40 355 42 350 113 348 326 316 306 223 211 245 34 291 222 231 165 170 176 174 175 188
23 18 13 4 348 335 307 292 314 333 327 322 330 28 271 186 24 351 357 281 9 32 58 2 2 73 62 284 334 281 134 337 285 165 239 89 272 263 199 163 183 188 186 184 190
17 11 1 349 323 326 306 280 288 291 332 291 356 86 305 239 329 344 357 344 307 309 355 351 29 84 21 62 10 349 276 267 328 201 119 196 271 263 185 177 203 200 195 188 186
13 8 1 351 338 318 319 274 279 286 290 260 286 18 241 275 299 331 327 315 335 332 2 23 44 48 18 77 256 285 324 323 272 261 216 256 267 245 217 210 214 201 200 193 187
13 7 3 9 16 347 350 317 17 357 229 214 180 251 89 315 271 212 346 345 237 85 72 264 57 221 207 157 138 226 245 270 268 182 250 236 273 282 245 231 220 201 201 200 199
11 9 5 5 19 13 24 71 54 295 318 206 284 262 216 11 337 246 334 358 225 265 179 19 231 169 125 110 172 247 276 267 274 186 357 298 289 298 278 230 198 194 204 202 192
8 5 3 358 35 35 71 67 58 13 203 224 214 278 172 79 299 231 10 8 240 276 222 185 253 139 128 236 252 243 217 265 249 328 289 307 284 311 306 352 93 194 203 192 188
2 2 2 4 85 16 57 17 9 337 60 234 255 244 163 125 288 97 48 143 253 237 304 239 163 179 220 251 184 287 182 254 302 31 291 57 280 302 228 231 238 207 191 203 185
357 358 1 26 9 47 340 344 351 69 8 276 209 146 158 216 278 192 104 83 228 198 103 257 168 200 239 226 162 232 277 251 180 213 9 286 120 271 232 254 249 232 226 212 200
352 350 356 4 21 5 332 328 90 45 267 156 142 232 279 194 235 133 246 206 174 317 204 246 340 211 214 197 207 3 312 12 90 104 345 232 152 277 220 199 194 98 225 203 194
346 343 344 344 335 335 332 58 36 136 210 212 208 206 264 245 226 180 224 232 197 309 299 216 231 184 162 167 15 66 53 320 338 342 231 208 169 240 230 173 155 126 305 200 189
342 338 329 305 346 346 37 51 198 253 80 238 218 274 221 196 240 217 275 282 222 115 287 214 310 183 178 208 186 191 150 172 275 256 264 266 242 258 49 100 97 89 93 142 167
340 339 310 319 340 348 68 62 218 216 211 3 323 253 241 228 228 215 214 231 211 171 184 249 264 61 82 36 136 171 180 192 246 282 304 235 289 357 70 98 92 124 122 154 165
335 326 285 306 322 46 77 229 244 146 336 161 200 200 276 212 219 173 268 218 179 125 135 286 297 198 211 44 335 184 188 98 103 272 260 280 267 237 175 123 75 32 351 293 101
339 360 241 326 344 57 186 228 204 103 101 193 253 282 266 291 230 226 251 294 93 119 76 146 166 263 112 201 194 121 239 220 150 166 250 303 269 223 101 60 58 33 24 12 75
359 338 203 335 18 233 206 232 190 175 160 248 225 246 225 275 269 260 228 215 129 151 181 220 191 246 228 268 247 175 198 169 170 215 223 235 253 56 77 64 49 33 53 59 61
321 257 263 207 220 289 306 286 249 184 198 176 238 217 144 230 283 240 260 193 163 166 180 174 241 315 315 300 0 185 164 119 359 56 226 246 230 83 73 62 47 71 71 64 60
320 319 309 45 217 179 346 265 293 323 267 200 227 166 210 232 228 271 271 280 193 227 127 156 205 213 253 257 138 217 205 205 202 207 254 223 256 187 87 87 83 82 79 79 72
210 249 217 281 290 203 206 267 299 299 231 187 263 215 208 245 231 248 251 312 209 167 124 190 258 227 256 274 276 273 268 242 233 243 242 271 261 321 102 104 82 84 82 72 63
268 267 338 256 271 276 209 221 242 255 242 258 248 234 261 255 251 291 300 204 233 198 183 189 254 241 267 258 262 270 265 259 259 255 257 260 260 82 89 81 65 53 52 58 52
348 348 284 209 210 219 210 223 239 254 258 256 231 256 258 262 258 268 228 226 245 228 211 181 204 193 271 248 271 268 253 236 235 56 321 284 45 34 83 67 40 34 42 41 32